User: anonymous   Login
Location: Voyageurs National Park
(48.5020°N, 92.9292°W)
Time: 17:49:15
(UTC-05:00)
Language:

Terra - Orbit

View from above orbital plane
View from above orbital plane
View from above satellite
View from above satellite

Ground track
Ground track

The orbit data is extracted from the following two-line orbital elements,

1 25994U 99068A   17206.17927588 -.00000009 +00000-0 +79747-5 0  9993
2 25994 098.2063 280.6804 0000842 075.4024 284.7272 14.57103223936203
Epoch (UTC): 25 July 2017 04:18:09
Eccentricity: 0.0000842
inclination: 98.2063°
perigee height: 702 km
apogee height: 703 km
right ascension of ascending node: 280.6804°
argument of perigee: 75.4024°
revolutions per day: 14.57103223
mean anomaly at epoch: 284.7272°
orbit number at epoch: 93620

The dashed part of the orbit path shows where the satellite is in the earth's shadow,  

DLR